When you browse on this site, cookies collect data to enhance your experience and personalize the content and advertising you see.
Visit our Privacy Policy to learn more. By continuing to use the site, you agree to this use of cookies and data.
EN

Hourly Weather Vechirky

Today, 14 August, Friday

Time Temperature Precipitation Wind Pressure Humidity
00:00 +12°C° 0 mm 2 mps 751 mmHg 83%
01:00 +12°C° 0 mm 2 mps 752 mmHg 85%
02:00 +10°C° 0 mm 2 mps 752 mmHg 87%
03:00 +10°C° 0 mm 2 mps 752 mmHg 87%
04:00 +10°C° 0 mm 3 mps 752 mmHg 87%
05:00 +9°C° 0 mm 3 mps 752 mmHg 87%
06:00 +11°C° 0 mm 3 mps 752 mmHg 78%
07:00 +13°C° 0 mm 3 mps 752 mmHg 69%
08:00 +15°C° 0 mm 4 mps 752 mmHg 61%
09:00 +17°C° 0 mm 4 mps 752 mmHg 55%
10:00 +18°C° 0 mm 4 mps 752 mmHg 49%
11:00 +20°C° 0 mm 4 mps 752 mmHg 44%
12:00 +20°C° 0 mm 4 mps 752 mmHg 44%
13:00 +20°C° 0 mm 4 mps 752 mmHg 43%
14:00 +20°C° 0 mm 4 mps 752 mmHg 43%
15:00 +20°C° 0 mm 4 mps 752 mmHg 44%
16:00 +20°C° 0 mm 4 mps 752 mmHg 46%
17:00 +19°C° 0 mm 4 mps 752 mmHg 48%
18:00 +18°C° 0 mm 3 mps 752 mmHg 54%
19:00 +16°C° 0 mm 3 mps 752 mmHg 61%
20:00 +14°C° 0 mm 2 mps 752 mmHg 67%
21:00 +13°C° 0 mm 2 mps 752 mmHg 69%
22:00 +13°C° 0 mm 2 mps 753 mmHg 72%
23:00 +12°C° 0 mm 2 mps 753 mmHg 74%

Tomorrow, 15 August, Saturday

Time Temperature Precipitation Wind Pressure Humidity
00:00 +12°C° 0 mm 2 mps 753 mmHg 77%
01:00 +12°C° 0 mm 2 mps 753 mmHg 80%
02:00 +10°C° 0 mm 2 mps 753 mmHg 83%
03:00 +10°C° 0 mm 2 mps 753 mmHg 84%
04:00 +10°C° 0 mm 2 mps 753 mmHg 85%
05:00 +11°C° 0 mm 1 mps 753 mmHg 86%
06:00 +13°C° 0 mm 1 mps 753 mmHg 78%
07:00 +15°C° 0 mm 1 mps 753 mmHg 71%
08:00 +18°C° 0 mm 1 mps 754 mmHg 63%
09:00 +19°C° 0 mm 1 mps 754 mmHg 57%
10:00 +20°C° 0 mm 2 mps 754 mmHg 52%
11:00 +21°C° 0 mm 2 mps 754 mmHg 46%
12:00 +23°C° 0 mm 2 mps 754 mmHg 44%
13:00 +23°C° 0 mm 2 mps 754 mmHg 42%
14:00 +24°C° 0 mm 2 mps 754 mmHg 40%
15:00 +24°C° 0 mm 2 mps 753 mmHg 41%
16:00 +24°C° 0 mm 2 mps 753 mmHg 42%
17:00 +23°C° 0 mm 2 mps 753 mmHg 43%
18:00 +20°C° 0 mm 2 mps 753 mmHg 50%
19:00 +18°C° 0 mm 2 mps 753 mmHg 56%
20:00 +16°C° 0 mm 2 mps 753 mmHg 63%
21:00 +16°C° 0 mm 2 mps 753 mmHg 66%
22:00 +15°C° 0 mm 2 mps 753 mmHg 69%
23:00 +14°C° 0 mm 2 mps 753 mmHg 73%

Day after tomorrow, 16 August, Sunday

Time Temperature Precipitation Wind Pressure Humidity
00:00 +14°C° 0 mm 1 mps 753 mmHg 74%
01:00 +14°C° 0 mm 1 mps 753 mmHg 76%
02:00 +13°C° 0 mm 1 mps 753 mmHg 77%
03:00 +12°C° 0 mm 0 mps 753 mmHg 78%
04:00 +12°C° 0 mm 0 mps 753 mmHg 80%
05:00 +11°C° 0 mm 0 mps 753 mmHg 81%
06:00 +14°C° 0 mm 0 mps 753 mmHg 73%
07:00 +18°C° 0 mm 1 mps 753 mmHg 65%
08:00 +20°C° 0 mm 1 mps 753 mmHg 57%
09:00 +22°C° 0 mm 1 mps 753 mmHg 53%
10:00 +23°C° 0 mm 2 mps 753 mmHg 48%
11:00 +24°C° 0 mm 2 mps 753 mmHg 44%
12:00 +25°C° 0 mm 2 mps 753 mmHg 43%
13:00 +25°C° 0 mm 2 mps 753 mmHg 41%
14:00 +26°C° 0 mm 2 mps 753 mmHg 40%
15:00 +26°C° 0 mm 3 mps 752 mmHg 42%
16:00 +26°C° 0 mm 3 mps 752 mmHg 43%
17:00 +25°C° 0 mm 3 mps 752 mmHg 45%
18:00 +24°C° 0 mm 2 mps 752 mmHg 51%
19:00 +21°C° 0 mm 2 mps 752 mmHg 57%
20:00 +20°C° 0 mm 1 mps 752 mmHg 64%
21:00 +19°C° 0 mm 1 mps 752 mmHg 65%
22:00 +18°C° 0 mm 2 mps 752 mmHg 65%
23:00 +17°C° 0 mm 2 mps 752 mmHg 66%

17 August, Monday

Time Temperature Precipitation Wind Pressure Humidity
00:00 +17°C° 0 mm 2 mps 752 mmHg 67%
01:00 +17°C° 0 mm 2 mps 752 mmHg 67%
02:00 +16°C° 0 mm 2 mps 752 mmHg 68%
03:00 +16°C° 0 mm 2 mps 752 mmHg 70%
04:00 +16°C° 0 mm 2 mps 752 mmHg 71%
05:00 +16°C° 0 mm 2 mps 752 mmHg 73%
06:00 +18°C° 0 mm 2 mps 752 mmHg 68%
07:00 +20°C° 0 mm 2 mps 752 mmHg 64%
08:00 +23°C° 0 mm 2 mps 752 mmHg 59%
09:00 +24°C° 0 mm 2 mps 752 mmHg 55%
10:00 +26°C° 0 mm 2 mps 752 mmHg 51%
11:00 +27°C° 0 mm 2 mps 752 mmHg 47%
12:00 +28°C° 0 mm 2 mps 752 mmHg 45%
13:00 +28°C° 0 mm 2 mps 752 mmHg 42%
14:00 +29°C° 0 mm 2 mps 751 mmHg 40%
15:00 +29°C° 0 mm 2 mps 751 mmHg 40%
16:00 +29°C° 0 mm 2 mps 751 mmHg 40%
17:00 +28°C° 0 mm 1 mps 750 mmHg 40%
18:00 +26°C° 0 mm 1 mps 750 mmHg 45%
19:00 +24°C° 0 mm 1 mps 750 mmHg 51%
20:00 +20°C° 0 mm 0 mps 750 mmHg 56%
21:00 +19°C° 0 mm 0 mps 750 mmHg 57%
22:00 +21°C° 0 mm 1 mps 750 mmHg 58%
23:00 +20°C° 0 mm 1 mps 750 mmHg 60%

18 August, Tuesday

Time Temperature Precipitation Wind Pressure Humidity
00:00 +20°C° 0 mm 1 mps 750 mmHg 60%
01:00 +19°C° 0 mm 1 mps 750 mmHg 61%
02:00 +18°C° 0 mm 2 mps 749 mmHg 62%
03:00 +18°C° 0 mm 2 mps 749 mmHg 63%
04:00 +18°C° 0 mm 2 mps 749 mmHg 64%
05:00 +17°C° 0 mm 2 mps 749 mmHg 64%
06:00 +19°C° 0 mm 2 mps 749 mmHg 59%
07:00 +21°C° 0 mm 3 mps 749 mmHg 53%
08:00 +24°C° 0 mm 3 mps 748 mmHg 48%
09:00 +26°C° 0 mm 3 mps 748 mmHg 44%
10:00 +27°C° 0 mm 3 mps 748 mmHg 39%
11:00 +29°C° 0 mm 4 mps 748 mmHg 35%
12:00 +29°C° 0 mm 3 mps 748 mmHg 36%
13:00 +29°C° 0 mm 3 mps 747 mmHg 37%
14:00 +28°C° 0 mm 3 mps 747 mmHg 37%
15:00 +29°C° 0 mm 3 mps 746 mmHg 37%
16:00 +29°C° 0 mm 3 mps 746 mmHg 36%
17:00 +30°C° 0 mm 3 mps 746 mmHg 35%
18:00 +28°C° 0 mm 3 mps 746 mmHg 37%
19:00 +26°C° 0 mm 3 mps 745 mmHg 39%
20:00 +23°C° 0 mm 4 mps 745 mmHg 42%
21:00 +22°C° 0.2 mm 3 mps 745 mmHg 47%
22:00 +21°C° 0.2 mm 3 mps 745 mmHg 53%
23:00 +20°C° 0.2 mm 3 mps 745 mmHg 59%

19 August, Wednesday

Time Temperature Precipitation Wind Pressure Humidity
00:00 +19°C° 0.2 mm 3 mps 745 mmHg 64%
01:00 +18°C° 0.2 mm 3 mps 745 mmHg 69%
02:00 +18°C° 0.2 mm 3 mps 744 mmHg 73%
03:00 +17°C° 0.7 mm 3 mps 744 mmHg 77%
04:00 +17°C° 0.7 mm 3 mps 744 mmHg 81%
05:00 +17°C° 0.7 mm 2 mps 744 mmHg 84%
06:00 +18°C° 0.4 mm 2 mps 744 mmHg 79%
07:00 +20°C° 0.4 mm 3 mps 744 mmHg 73%
08:00 +22°C° 0.4 mm 3 mps 744 mmHg 67%
09:00 +24°C° 0.2 mm 3 mps 744 mmHg 63%
10:00 +26°C° 0.2 mm 3 mps 744 mmHg 59%
11:00 +27°C° 0.2 mm 3 mps 744 mmHg 54%
12:00 +27°C° 0 mm 3 mps 744 mmHg 54%
13:00 +27°C° 0 mm 3 mps 743 mmHg 54%
14:00 +27°C° 0 mm 3 mps 743 mmHg 53%
15:00 +28°C° 0.2 mm 2 mps 743 mmHg 52%
16:00 +29°C° 0.2 mm 2 mps 743 mmHg 51%
17:00 +30°C° 0.2 mm 1 mps 743 mmHg 50%
18:00 +27°C° 1.1 mm 2 mps 743 mmHg 60%
19:00 +25°C° 1.1 mm 2 mps 743 mmHg 69%
20:00 +22°C° 1.1 mm 3 mps 743 mmHg 79%
21:00 +21°C° 0.8 mm 3 mps 743 mmHg 81%
22:00 +21°C° 0.8 mm 3 mps 743 mmHg 83%
23:00 +20°C° 0.8 mm 3 mps 743 mmHg 86%
Show more